Douglas, WY

12:14 PM MST on February 26, 2017 (GMT -0700)
Converse County

Weather History for KDGW - December, 2012

Change the Weather History Date:

Wednesday, December 19, 2012

  Actual Average Record
Temperature  
Mean Temperature 15 °F 23 °F  
Max Temperature 28 °F 37 °F 56 °F (2004)
Min Temperature 2 °F 10 °F -9 °F (2006)
Degree Days  
Heating Degree Days 50 42  
Month to date heating degree days 530 773  
Since 1 July heating degree days 2077 2595  
Cooling Degree Days 0 0  
Month to date cooling degree days 0 0  
Year to date cooling degree days 831 486  
Moisture  
Dew Point -2 °F    
Average Humidity 42    
Maximum Humidity 56    
Minimum Humidity 27    
Precipitation  
Precipitation 0.00 in 0.01 in 0.38 in (2013)
Month to date precipitation T 0.26  
Year to date precipitation 5.26 13.25  
Sea Level Pressure  
Sea Level Pressure 30.09 in    
Wind  
Wind Speed 8 mph (NNW)    
Max Wind Speed 21 mph    
Max Gust Speed 25 mph    
Visibility 10 miles    
Events      
T = Trace of Precipitation, MM = Missing Value Source: NWS Daily Summary

Daily Weather History Graph

Daily Weather History Graph

Search for Another Location

Airport or City:

Trip Planner

Search our weather history database for the weather conditions in past years. The results will help you decide how hot, cold, wet, or windy it might be!

Date:

Astronomy

Dec. 19, 2012 Rise Set
Actual Time 7:28 AM MST 4:29 PM MST
Civil Twilight 6:55 AM MST 5:02 PM MST
Nautical Twilight 6:20 AM MST 5:37 PM MST
Astronomical Twilight 5:45 AM MST 6:12 PM MST
Moon 11:29 AM MST (12/19) No Moon Set
Length of Visible Light 10h 06m
Length of Day
9h 01m
Waxing Crescent, 45% of the Moon is Illuminated
Dec 19
Waxing Crescent
Dec 19
First Quarter
Dec 28
Full
Jan 4
Last Quarter
Jan 11
New

Hourly Weather History & Observations

Time (MST) Temp. Windchill Dew Point Humidity Pressure Visibility Wind Dir Wind Speed Gust Speed Precip Events Conditions
12:53 AM 21.9 °F 14.5 °F 3.0 °F 44% 29.87 in 10.0 mi NE 5.8 mph - N/A   Overcast
1:53 AM 23.0 °F 14.7 °F 1.9 °F 40% 29.86 in 10.0 mi NNE 6.9 mph - N/A   Overcast
2:53 AM 21.9 °F 9.8 °F -0.0 °F 38% 29.88 in 10.0 mi NNE 12.7 mph - N/A   Overcast
3:53 AM 21.9 °F 10.4 °F -0.0 °F 38% 29.90 in 10.0 mi NNE 11.5 mph 17.3 mph N/A   Overcast
4:53 AM 21.9 °F 13.4 °F -0.0 °F 38% 29.91 in 10.0 mi NNE 6.9 mph - N/A   Overcast
5:53 AM 21.0 °F - -0.0 °F 40% 29.98 in 10.0 mi Calm Calm - N/A   Overcast
6:53 AM 19.9 °F 12.1 °F 1.0 °F 44% 29.99 in 10.0 mi North 5.8 mph - N/A   Overcast
7:53 AM 19.0 °F - 1.9 °F 47% 30.05 in 10.0 mi Calm Calm - N/A   Overcast
8:53 AM 19.9 °F 9.3 °F 1.0 °F 44% 30.08 in 10.0 mi NNW 9.2 mph - N/A   Overcast
9:53 AM 21.9 °F 13.4 °F 1.0 °F 40% 30.08 in 10.0 mi NNW 6.9 mph - N/A   Overcast
10:53 AM 23.0 °F 10.1 °F 1.0 °F 39% 30.08 in 10.0 mi North 15.0 mph - N/A   Mostly Cloudy
11:53 AM 25.0 °F 13.1 °F -0.0 °F 34% 30.07 in 10.0 mi NNW 13.8 mph - N/A   Scattered Clouds
12:53 PM 26.1 °F 14.0 °F -0.9 °F 31% 30.06 in 10.0 mi NW 15.0 mph - N/A   Partly Cloudy
1:53 PM 28.0 °F 18.1 °F -2.0 °F 27% 30.05 in 10.0 mi NW 11.5 mph - N/A   Clear
2:53 PM 27.0 °F 17.3 °F -2.9 °F 27% 30.08 in 10.0 mi NW 10.4 mph - N/A   Clear
3:53 PM 25.0 °F 16.3 °F -6.0 °F 26% 30.11 in 10.0 mi North 8.1 mph - N/A   Clear
4:53 PM 17.1 °F 7.6 °F -5.1 °F 37% 30.17 in 10.0 mi NNE 6.9 mph - N/A   Clear
5:53 PM 14.0 °F 8.2 °F -6.0 °F 41% 30.22 in 10.0 mi WNW 3.5 mph - N/A   Clear
6:53 PM 10.0 °F 3.6 °F -6.0 °F 48% 30.25 in 10.0 mi West 3.5 mph - N/A   Clear
7:53 PM 9.0 °F -0.9 °F -6.0 °F 51% 30.27 in 10.0 mi North 5.8 mph - N/A   Clear
8:53 PM 7.0 °F -1.7 °F -9.0 °F 48% 30.28 in 10.0 mi NNW 4.6 mph - N/A   Clear
9:53 PM 6.1 °F -4.3 °F -9.0 °F 50% 30.28 in 10.0 mi North 5.8 mph - N/A   Clear
10:53 PM 3.9 °F -3.4 °F -9.0 °F 55% 30.29 in 10.0 mi NW 3.5 mph - N/A   Clear
11:53 PM 6.1 °F -8.7 °F -7.1 °F 55% 30.27 in 10.0 mi NW 10.4 mph - N/A   Clear